Terminal Aerodrome Forecast
Issued by NWS Sterling, VA

Home | Current Version | Previous Version | Text Only | Print | Product List | Glossary On
Versions: 1 2 3 4 5 6 7 8 9 10 11 12 13 14 15 16 17 18 19 20 21 22 23 24 25 26
879
FTUS41 KLWX 220914 AAA
TAFDCA
TAF AMD
KDCA 220914Z 2209/2306 04004KT 2SM -DZ BR BKN003 OVC005
     FM221500 06006KT 5SM -DZ BR BKN005 OVC008
     FM221800 06007KT 5SM -RADZ BKN008 OVC015
     FM222300 07010G18KT 5SM -RA BKN008 OVC015=

USA.gov is the U.S. government's official web portal to all federal, state and local government web resources and services.